Location: Hurecourt
(47.9030°N, 6.0653°E)
Time: 09:46:41
(UTC+00:00)

Meteor 1-4 Rocket - Pass Details

Date: 14 July 2020
Orbit: 449 x 502 km, 81.2° (Epoch: 05 August)

Event Time Altitude Azimuth Distance (km) Brightness Sun altitude
Rises 00:15:01 0° 349° (N) 2,591 7.6 -20.1°
Reaches altitude 10° 00:17:10 10° 351° (N) 1,696 6.4 -20.0°
Maximum altitude 00:20:53 81° 78° (ENE) 499 2.5 -19.9°
Enters shadow 00:21:23 64° 150° (SSE) 542 2.5 -19.9°
